Location: Andiroba
(19.8650°S, 43.9258°W)
Time: 01:24:02
(UTC+00:00)

Cosmos 1725 Rocket - Visible Passes

Search period start: 18 September 2024 00:00
Search period end: 28 September 2024 00:00
Orbit: 961 x 990 km, 82.9° (Epoch: 17 September)

Date Brightness Start Highest point End Pass type
(mag) Time Alt. Az. Time Alt. Az. Time Alt. Az.
18 Sep 7.7 21:40:06 10° WSW 21:41:19 11° W 21:42:32 10° W visible
19 Sep 6.5 07:23:41 10° NE 07:28:24 22° E 07:33:09 10° SE visible
20 Sep 5.2 07:47:37 10° NNE 07:53:37 47° E 07:59:39 10° SSE visible
21 Sep 4.1 08:12:36 10° N 08:18:56 85° W 08:25:19 10° S visible
21 Sep 7.4 21:09:30 10° WSW 21:12:23 14° W 21:15:14 10° WNW visible
22 Sep 6.7 06:55:18 10° NE 06:59:27 18° E 07:03:36 10° SE visible
23 Sep 5.5 07:18:51 10° NNE 07:24:38 39° E 07:30:26 10° SSE visible
24 Sep 4.2 07:43:36 10° N 07:49:55 81° E 07:56:17 10° S visible
25 Sep 6.8 06:27:08 10° ENE 06:30:30 15° E 06:33:51 10° SE visible
25 Sep 4.2 08:09:14 10° NNW 08:15:19 50° W 08:21:27 10° S visible
26 Sep 5.7 06:50:09 10° NNE 06:55:38 32° E 07:01:09 10° SSE visible
27 Sep 4.4 07:14:38 10° N 07:20:54 67° E 07:27:11 10° SSE visible
